EW7222 Weather Reports


Display with metric or nautical units.
time (UTC)temp
F
wind
direction
speed
MPH
gust
MPH
rain 1hr
in
rain 24hr
in
rain mn
in
humidity
%
barometer
mb
20260506033515 67 202 2.0 3.0 0.00 0.00 0.00 86 1019.4
20260506032514 67 225 1.0 1.0 0.00 0.00 0.00 85 1019.3
20260506030515 67 209 4.0 6.0 0.00 0.00 0.00 87 1019.5
20260506025613 67 176 4.0 6.0 0.00 0.00 0.00 88 1019.3
20260506023615 67 170 2.0 4.0 0.00 0.00 0.00 87 1019.5
20260506022613 67 205 2.0 4.0 0.00 0.00 0.00 86 1019.4
20260506021614 67 201 2.0 5.0 0.00 0.00 0.00 85 1019.5
20260506020615 67 197 2.0 4.0 0.00 0.00 0.00 84 1019.4
20260506015714 67 191 2.0 5.0 0.00 0.00 0.00 83 1019.4
20260506014715 67 195 5.0 7.0 0.00 0.00 0.00 82 1019.2
20260506013714 68 184 4.0 7.0 0.00 0.00 0.00 82 1019.2
20260506011714 68 199 3.0 5.0 0.00 0.00 0.00 82 1019.0
20260506010813 68 190 1.0 5.0 0.00 0.00 0.00 81 1019.0
20260506005832 68 198 4.0 6.0 0.00 0.00 0.00 81 1019.2
20260506004914 68 197 2.0 5.0 0.00 0.00 0.00 81 1019.1
20260506004013 68 204 2.0 4.0 0.00 0.00 0.00 80 1018.9
20260506003015 68 206 2.0 5.0 0.00 0.00 0.00 80 1018.8
20260506001016 68 184 2.0 7.0 0.00 0.00 0.00 78 1018.9
20260506000013 69 227 2.0 6.0 0.00 0.00 0.00 77 1019.0
20260505235016 69 213 5.0 7.0 0.00 0.00 0.00 75 1019.0
20260505232116 70 219 5.0 10.0 0.00 0.00 0.00 73 1019.1
20260505231113 71 202 4.0 8.0 0.00 0.00 0.00 72 1018.9
20260505230115 71 219 5.0 9.0 0.00 0.00 0.00 71 1019.1
20260505223115 73 201 5.0 7.0 0.00 0.00 0.00 67 1018.9
20260505222113 73 217 3.0 9.0 0.00 0.00 0.00 67 1018.9
20260505221114 72 221 5.0 8.0 0.00 0.00 0.00 68 1018.9
20260505215116 72 188 7.0 11.0 0.00 0.00 0.00 69 1018.7
20260505214115 71 188 5.0 8.0 0.00 0.00 0.00 69 1018.8
20260505212213 71 199 5.0 10.0 0.00 0.00 0.00 70 1018.8
20260505210214 72 188 9.0 13.0 0.00 0.00 0.00 67 1018.8
20260505205215 72 192 8.0 13.0 0.00 0.00 0.00 67 1018.9
20260505204214 72 187 10.0 14.0 0.00 0.00 0.00 67 1019.0
20260505203216 73 192 9.0 11.0 0.00 0.00 0.00 66 1019.0
20260505202214 73 195 5.0 9.0 0.00 0.00 0.00 67 1019.2
20260505201215 73 191 7.0 10.0 0.00 0.00 0.00 66 1019.2
20260505200314 73 191 9.0 13.0 0.00 0.00 0.00 68 1019.2
20260505195413 73 191 7.0 11.0 0.00 0.00 0.00 68 1019.4
20260505194414 74 189 8.0 11.0 0.00 0.00 0.00 66 1019.4
20260505194329 74 181 7.0 11.0 0.00 0.00 0.00 66 1019.5
20260505192412 74 194 7.0 10.0 0.00 0.00 0.00 65 1019.8
20260505191414 74 201 5.0 8.0 0.00 0.00 0.00 66 1019.9
20260505190414 73 216 3.0 7.0 0.00 0.00 0.00 67 1020.0
20260505190314 73 204 4.0 6.0 0.00 0.00 0.00 67 1020.0
20260505184413 73 189 5.0 8.0 0.00 0.00 0.00 66 1020.1
20260505183414 73 194 3.0 7.0 0.00 0.00 0.00 67 1020.1
20260505182416 73 186 5.0 8.0 0.00 0.00 0.00 67 1020.1
20260505181430 73 194 6.0 8.0 0.00 0.00 0.00 65 1020.2
20260505175516 73 200 4.0 7.0 0.00 0.00 0.00 66 1020.2
20260505174514 72 178 0.0 4.0 0.00 0.00 0.00 67 1020.3
20260505173513 72 194 8.0 9.0 0.00 0.00 0.00 67 1020.4
20260505172612 72 193 7.0 10.0 0.00 0.00 0.00 66 1020.3
20260505171613 72 184 7.0 9.0 0.00 0.00 0.00 67 1020.4
20260505170519 72 169 3.0 7.0 0.00 0.00 0.00 67 1020.4
20260505165530 73 189 8.0 10.0 0.00 0.00 0.00 66 1020.4
20260505164614 74 196 6.0 8.0 0.00 0.00 0.00 64 1020.3
20260505163614 73 186 3.0 6.0 0.00 0.00 0.00 66 1020.5
20260505163529 73 202 2.0 4.0 0.00 0.00 0.00 66 1020.5
20260505161513 72 219 5.0 8.0 0.00 0.00 0.00 66 1020.8
20260505152713 73 230 4.0 6.0 0.00 0.00 0.00 64 1020.8
20260505151714 73 215 6.0 8.0 0.00 0.00 0.00 64 1020.8
20260505150713 71 203 2.0 5.0 0.00 0.00 0.00 66 1020.8
20260505130115 72 180 1.0 4.0 0.00 0.00 0.00 69 1020.3
20260505125012 72 202 1.0 3.0 0.00 0.00 0.00 70 1020.4
20260505124015 71 202 1.0 1.0 0.00 0.00 0.00 72 1020.4
20260505123013 71 225 0.0 2.0 0.00 0.00 0.00 74 1020.4
20260505121113 70 202 1.0 3.0 0.00 0.00 0.00 76 1020.1
20260505120112 69 202 1.0 4.0 0.00 0.00 0.00 80 1020.2
20260505115113 68 225 0.0 2.0 0.00 0.00 0.00 83 1020.3
20260505114116 67 202 1.0 3.0 0.00 0.00 0.00 86 1020.1
20260505113212 67 202 0.0 2.0 0.00 0.00 0.00 87 1020.1
20260505112112 66 202 0.0 0.0 0.00 0.00 0.00 89 1020.1
20260505111113 65 225 1.0 2.0 0.00 0.00 0.00 90 1020.0
20260505110114 65 225 0.0 1.0 0.00 0.00 0.00 90 1019.8
20260505102215 64 225 0.0 1.0 0.00 0.00 0.00 89 1019.4
20260505101214 64 225 1.0 1.0 0.00 0.00 0.00 89 1019.4
20260505094411 64 228 2.0 4.0 0.00 0.00 0.00 87 1019.0
20260505093411 64 225 1.0 3.0 0.00 0.00 0.00 87 1019.0
20260505091413 64 225 2.0 3.0 0.00 0.00 0.00 86 1018.8
20260505090413 64 225 1.0 2.0 0.00 0.00 0.00 86 1018.9
20260505085412 64 227 3.0 4.0 0.00 0.00 0.00 86 1018.8
20260505084429 64 228 2.0 4.0 0.00 0.00 0.00 85 1018.8
20260505082514 64 225 2.0 4.0 0.00 0.00 0.00 84 1018.8
20260505081513 64 225 3.0 4.0 0.00 0.00 0.00 84 1018.8
20260505080529 65 225 2.0 4.0 0.00 0.00 0.00 83 1018.6
20260505075528 65 229 3.0 4.0 0.00 0.00 0.00 83 1018.5
20260505074613 65 225 3.0 5.0 0.00 0.00 0.00 82 1018.4
20260505073612 65 225 2.0 5.0 0.00 0.00 0.00 82 1018.5
20260505072612 65 212 2.0 6.0 0.00 0.00 0.00 82 1018.3
20260505071612 65 218 4.0 7.0 0.00 0.00 0.00 81 1018.5
20260505070612 65 239 3.0 8.0 0.00 0.00 0.00 81 1018.3
20260505065612 65 223 4.0 6.0 0.00 0.00 0.00 81 1018.6
20260505064711 65 208 3.0 7.0 0.00 0.00 0.00 80 1018.5
20260505062715 65 227 4.0 9.0 0.00 0.00 0.00 79 1018.5
20260505061812 65 205 2.0 6.0 0.00 0.00 0.00 78 1018.7
20260505060812 65 225 5.0 9.0 0.00 0.00 0.00 78 1018.8
20260505055813 66 228 2.0 4.0 0.00 0.00 0.00 77 1018.7
20260505054911 66 230 6.0 10.0 0.00 0.00 0.00 77 1018.8
20260505053913 66 227 6.0 11.0 0.00 0.00 0.00 76 1019.0
20260505052913 66 201 3.0 7.0 0.00 0.00 0.00 76 1019.0
20260505050912 66 212 4.0 9.0 0.00 0.00 0.00 75 1019.0
20260505041012 66 223 5.0 8.0 0.00 0.00 0.00 73 1019.2
20260505040912 66 218 5.0 7.0 0.00 0.00 0.00 73 1019.2
20260505035923 66 210 6.0 11.0 0.00 0.00 0.00 72 1019.2